Theta_e
310 311 310 306 302 301 310 306 302 304 308 305 306 308 312 316 318 318 316 315 313 318 322 323 326 326 327 330 325 318 317 321 322 322 322 321 321 323 323 326 330 331 330 328 329
311 309 311 309 306 302 309 311 304 308 311 304 305 305 306 310 315 317 318 318 315 314 324 324 325 325 328 330 329 326 321 320 319 320 321 321 323 324 322 323 330 330 331 330 329
310 310 312 311 309 304 307 311 309 311 311 305 305 305 305 306 309 306 310 317 317 316 320 324 326 329 328 328 326 320 323 319 318 320 321 322 322 325 324 323 327 325 322 330 330
311 310 310 312 309 307 304 309 311 310 312 308 304 304 306 309 303 306 304 306 317 318 320 321 324 328 325 324 325 324 322 321 320 319 322 324 324 324 325 326 324 324 320 322 330
313 311 310 310 310 309 303 308 310 311 312 311 304 304 308 312 305 316 316 308 314 320 321 323 324 325 323 323 323 322 323 324 323 324 323 324 324 323 323 326 325 326 328 323 329
314 312 310 310 310 309 306 306 309 309 311 311 305 307 310 310 305 316 319 316 312 319 322 322 323 325 324 323 322 323 324 324 324 324 325 323 323 323 324 325 325 324 326 326 324
314 314 311 310 310 309 309 305 307 309 312 312 305 307 311 307 306 304 318 315 315 317 321 320 321 324 323 322 324 323 324 321 322 322 322 323 322 320 322 322 323 324 326 326 320
314 314 313 310 310 309 309 305 305 310 313 311 305 309 310 308 308 309 308 312 319 320 321 320 319 322 323 322 322 324 324 324 322 322 323 323 324 319 322 322 323 323 325 326 324
313 314 314 312 310 310 308 305 304 309 311 310 308 308 308 306 305 306 312 311 320 320 320 319 319 320 321 323 323 323 323 323 322 322 322 320 322 320 321 322 321 323 324 324 325
311 313 315 313 310 310 308 305 304 306 309 308 309 309 308 309 304 308 315 313 319 321 319 319 319 317 319 319 321 318 321 320 321 322 320 320 321 319 322 321 320 321 322 323 324
310 311 314 315 311 310 308 306 307 307 307 309 309 307 310 308 308 307 316 318 318 319 319 319 319 318 319 317 317 316 316 317 317 318 322 322 322 321 320 320 319 321 319 320 320
309 310 312 315 313 310 309 306 305 305 308 309 308 308 310 309 311 309 313 315 315 316 315 317 319 315 315 315 319 318 319 319 317 318 320 321 322 321 320 320 320 320 320 321 323
308 309 311 316 313 311 309 307 305 305 306 307 308 308 310 311 311 313 312 312 312 313 316 313 313 315 317 319 319 320 323 321 321 320 320 322 324 322 320 321 321 320 320 320 321
308 308 309 314 314 311 309 307 305 305 302 304 307 307 309 311 311 311 312 312 312 313 312 313 313 313 314 317 318 322 320 322 322 323 324 322 327 323 321 321 321 321 321 321 321
306 307 307 309 314 311 309 307 305 304 305 302 306 307 308 309 309 312 313 313 312 311 311 310 312 312 313 314 315 318 317 319 321 322 321 321 322 321 320 322 321 320 321 322 322
305 306 306 309 313 309 309 306 305 303 305 304 306 308 309 308 308 312 312 313 312 312 312 311 310 311 311 311 312 315 318 317 318 319 320 320 321 320 320 320 320 320 321 322 323
303 305 307 309 311 310 308 305 306 305 299 304 306 307 307 308 307 310 312 313 311 312 313 309 309 309 311 315 314 314 317 316 318 320 317 317 320 320 317 319 320 320 320 321 321
304 304 305 309 308 310 307 304 307 302 298 303 304 307 307 307 306 308 311 310 309 308 307 310 305 309 308 313 314 315 317 317 313 314 315 317 322 319 317 318 319 319 321 321 321
302 303 304 306 309 307 306 308 306 303 300 305 306 306 306 306 305 305 308 309 308 309 306 305 307 308 309 310 311 312 316 314 317 314 319 317 315 315 314 316 317 318 319 320 321
301 302 303 305 306 307 307 308 304 302 304 304 302 304 304 306 305 305 304 305 305 308 306 308 308 308 309 311 311 311 312 314 316 319 318 315 315 317 315 316 314 315 317 320 321
301 301 304 305 306 303 309 308 302 302 304 302 302 301 301 306 304 305 304 304 304 306 307 308 307 308 311 312 312 315 314 317 316 317 316 315 312 310 314 315 315 314 316 315 314
302 301 302 305 300 304 307 304 302 302 304 302 301 301 302 304 304 305 305 304 305 306 308 306 307 304 309 309 310 311 313 313 318 319 318 317 317 311 307 307 306 306 310 310 309
299 300 304 304 305 306 306 304 302 304 304 303 303 304 302 304 304 304 304 304 306 306 306 307 304 300 307 308 308 312 314 315 315 316 318 319 317 310 310 311 313 305 310 313 312
301 301 300 304 301 304 305 303 303 304 301 301 302 303 303 304 304 304 304 307 307 307 308 308 309 305 304 307 307 310 312 314 315 316 316 316 317 315 315 314 314 315 315 315 312
300 301 301 302 302 304 304 303 304 304 302 303 304 305 305 305 306 305 305 305 307 307 309 308 308 306 308 308 310 310 309 310 313 313 316 315 315 315 314 314 314 314 314 315 315
299 300 300 301 301 303 304 304 304 303 303 305 305 305 304 305 305 306 306 305 308 307 310 310 311 309 307 307 307 307 306 308 310 311 313 313 313 312 312 313 312 313 312 312 313
299 301 301 302 302 304 304 303 304 303 301 303 304 303 304 303 304 305 305 304 303 308 309 310 309 304 301 301 305 309 307 307 306 308 310 311 311 311 311 311 313 313 313 313 313
Wind_Speed
29 25 24 24 25 24 22 22 21 20 19 18 18 18 17 14 13 14 14 12 15 10 9 11 11 11 9 6 5 5 3 3 5 6 6 2 5 8 5 4 6 8 7 6 9
30 30 27 25 23 24 22 20 20 17 17 15 15 16 16 15 15 17 16 15 15 16 8 6 9 10 6 7 6 5 4 8 5 6 5 6 5 4 6 9 8 10 12 12 12
33 31 32 28 24 23 23 21 19 18 16 15 14 13 13 13 12 19 21 17 15 15 19 12 4 8 6 6 8 7 6 4 4 10 6 5 7 5 2 3 5 7 19 17 19
37 35 36 32 26 23 24 23 19 19 18 16 15 13 11 10 6 4 13 22 21 20 15 14 12 5 5 4 6 2 9 7 5 13 6 4 5 7 12 14 8 15 19 17 25
41 39 37 35 29 25 24 24 22 21 19 16 15 14 15 11 10 6 5 10 24 22 19 15 13 9 5 5 5 2 3 12 19 12 13 12 14 10 16 19 15 17 22 19 25
45 43 39 36 32 27 24 25 24 23 21 17 16 16 19 9 10 12 6 7 21 24 18 14 10 14 8 5 8 4 14 11 12 20 13 5 12 7 14 22 19 18 23 22 24
47 45 42 38 36 30 25 25 24 24 20 18 18 18 18 22 7 15 13 6 15 25 22 19 14 12 5 3 11 3 3 5 9 4 5 2 12 8 30 32 29 29 28 25 23
47 47 44 41 38 33 28 25 26 24 20 16 18 19 11 17 13 10 16 10 14 20 19 19 18 13 4 2 2 5 3 10 2 11 6 7 21 5 16 29 32 31 26 27 26
49 47 47 44 40 36 30 26 27 25 21 17 18 15 9 12 17 17 15 15 16 21 18 18 16 9 5 2 3 3 7 9 10 16 5 9 9 5 21 25 22 29 29 28 29
50 48 49 47 43 39 32 28 25 24 22 18 16 9 15 13 15 23 16 17 17 19 17 11 12 5 5 5 10 9 10 5 8 4 7 8 18 10 19 20 22 34 40 33 33
50 50 50 51 46 43 36 31 21 13 33 12 10 4 4 16 17 28 24 20 19 20 7 12 7 14 16 14 5 4 4 11 6 6 9 15 21 17 28 28 23 34 35 33 33
53 48 49 58 51 48 46 46 45 15 17 21 9 24 3 14 8 20 27 14 14 15 7 4 20 8 5 8 12 20 14 16 5 6 8 13 22 17 21 24 29 33 38 38 43
51 52 52 62 55 55 56 54 43 29 8 20 9 27 9 17 6 21 29 15 4 9 15 11 3 15 8 11 16 15 15 11 13 3 7 7 24 21 15 30 31 37 44 40 45
50 50 49 52 61 66 63 53 44 30 4 6 14 10 22 13 5 17 27 15 5 15 7 8 13 4 6 14 9 13 13 12 9 6 7 6 13 17 8 21 21 31 39 43 47
44 51 52 56 59 61 65 55 44 24 7 10 12 14 27 17 15 17 31 16 8 8 8 7 6 12 17 5 6 8 7 9 8 7 11 18 10 10 7 17 21 19 36 42 44
50 44 52 54 46 70 57 54 40 6 8 8 13 16 17 16 6 22 21 11 6 5 3 2 2 3 11 5 11 2 3 5 3 5 11 23 9 20 14 21 24 22 35 41 46
45 50 47 50 53 64 62 51 10 9 2 12 12 21 22 12 9 14 17 12 8 6 11 2 5 3 2 4 3 4 4 4 3 6 12 4 9 20 10 18 22 19 33 37 43
39 51 50 53 66 74 69 15 11 8 8 3 12 22 15 20 9 12 15 17 14 4 6 9 5 11 7 9 4 8 11 6 6 4 5 3 9 11 11 27 30 32 36 32 35
36 42 45 52 39 74 49 25 10 23 10 12 16 24 8 12 10 7 17 23 17 15 9 6 5 2 4 5 12 6 9 12 10 7 5 5 9 5 10 12 18 21 26 37 38
33 40 48 46 37 54 27 15 10 10 11 22 7 11 12 26 11 18 16 15 8 23 1 6 2 1 3 4 6 5 1 4 5 5 9 11 11 11 6 8 11 15 25 37 43
33 14 28 46 40 39 20 15 10 22 25 8 8 7 8 23 17 16 14 5 20 16 12 4 4 2 5 7 8 6 12 6 3 6 4 8 8 8 16 17 17 10 24 26 29
24 8 16 43 12 14 15 11 12 17 12 5 6 5 11 18 18 14 16 8 20 20 22 5 4 4 7 2 1 5 13 17 7 8 6 8 16 4 7 7 8 15 26 25 25
19 5 33 44 11 12 13 13 16 20 14 7 4 4 3 14 8 8 9 10 22 17 17 14 4 3 3 4 5 6 14 10 16 11 16 8 13 1 10 14 27 17 23 31 30
12 3 6 21 11 14 21 12 14 28 4 5 6 12 11 13 4 12 11 4 18 18 17 26 5 9 11 4 2 6 10 13 19 11 24 22 28 21 18 18 18 30 34 35 35
9 3 5 5 5 16 16 14 19 11 3 5 3 14 12 8 3 8 7 4 6 17 10 10 5 6 5 3 3 4 5 9 20 27 12 29 25 31 19 18 24 39 45 39 45
6 4 3 7 11 15 11 14 29 12 9 13 12 18 5 12 11 14 11 5 6 4 12 6 2 4 3 6 7 13 17 17 21 20 21 30 35 41 29 31 31 33 30 33 38
6 9 3 14 9 14 5 18 26 21 3 12 19 11 6 11 13 15 13 14 12 13 19 8 5 3 4 1 3 9 19 18 18 24 24 24 38 32 22 20 28 35 40 42 46
Wind_Direction
241 242 245 244 242 238 233 235 238 237 237 229 230 229 228 230 234 234 234 249 242 233 224 224 221 223 225 196 162 155 83 197 213 165 163 27 37 22 355 278 208 212 240 250 205
241 239 240 242 240 239 230 230 230 227 228 224 221 220 222 227 233 237 238 241 238 225 203 192 217 212 195 189 183 171 153 214 212 169 194 146 118 6 29 343 257 253 248 249 210
238 239 236 237 239 237 228 227 229 221 227 220 215 212 212 218 243 253 240 232 228 221 217 220 216 192 185 178 179 172 188 220 225 209 204 175 169 144 63 316 254 326 323 277 213
239 236 236 234 237 235 226 223 220 219 223 223 214 206 194 197 210 210 221 218 215 212 210 215 211 203 165 190 194 190 232 205 199 210 214 231 188 176 196 242 271 296 316 283 232
237 236 235 233 232 232 224 217 214 212 219 223 215 196 184 199 222 179 204 214 206 201 206 204 197 200 192 195 163 223 247 236 233 213 230 261 259 281 214 259 276 281 291 295 250
236 234 232 230 228 228 225 216 215 212 218 220 211 191 196 212 221 195 180 193 203 200 190 196 207 206 216 190 186 219 227 241 249 252 253 244 270 255 276 271 262 273 281 281 267
234 231 230 228 225 223 221 214 209 207 211 213 206 197 206 227 215 203 189 193 203 200 189 193 194 204 206 170 227 214 270 287 253 270 265 268 265 220 259 269 271 261 263 264 268
232 229 227 225 222 219 217 210 205 201 200 205 207 202 227 234 196 192 203 193 192 187 199 206 213 228 217 174 150 185 190 250 194 182 221 193 257 297 261 253 257 264 257 246 256
229 227 225 222 219 215 212 205 202 200 196 197 199 197 236 228 217 197 193 189 181 184 195 206 212 210 179 197 235 189 251 226 247 193 181 197 263 241 247 255 252 252 246 246 249
228 225 223 219 215 211 204 197 194 202 199 201 206 191 233 210 198 185 186 182 176 186 193 190 194 175 201 183 221 226 233 242 251 202 187 235 256 279 254 265 256 258 259 249 242
228 223 220 218 211 205 193 178 173 190 189 183 203 191 315 201 187 187 182 168 179 182 184 192 198 216 215 221 224 273 237 252 266 230 216 234 253 247 250 256 254 254 257 249 242
225 221 217 220 208 201 192 183 184 194 183 204 201 199 179 168 156 192 188 168 178 193 147 175 229 209 231 222 228 241 254 260 275 249 217 262 263 253 242 245 242 248 255 255 255
222 219 215 212 210 196 195 196 179 164 149 207 196 197 165 182 179 184 185 182 149 164 192 197 234 184 193 212 223 236 242 249 262 297 268 301 280 267 250 256 252 251 255 257 255
218 213 214 211 197 190 193 190 180 167 115 203 203 220 201 181 230 196 187 171 174 197 141 231 246 229 214 235 218 252 222 250 270 261 267 153 285 263 253 260 247 242 243 246 245
214 211 211 207 190 184 192 182 173 169 203 178 172 187 180 173 142 184 179 187 168 166 164 213 195 216 237 172 175 270 261 266 267 268 294 262 269 283 248 261 255 245 245 248 245
213 207 210 211 212 184 182 174 166 153 210 161 148 166 159 187 174 157 184 176 156 157 107 183 249 200 229 181 199 247 36 321 258 255 256 256 231 270 240 254 265 257 251 250 254
213 210 209 210 216 176 176 162 179 197 132 162 172 170 170 169 149 172 180 189 167 154 202 122 215 153 201 155 97 151 166 271 255 208 247 209 210 245 261 245 245 249 254 255 260
205 206 212 209 217 176 167 174 200 126 187 173 156 162 173 153 176 181 176 194 215 176 137 187 286 164 175 206 151 199 196 214 215 231 279 171 236 254 226 236 243 250 253 258 258
209 206 218 216 207 173 162 187 182 158 163 132 129 161 158 179 159 154 194 204 201 193 171 150 255 67 110 136 174 191 226 232 273 260 290 242 282 287 231 239 239 255 263 260 266
200 206 222 217 215 185 172 172 181 142 121 136 145 173 167 180 154 185 178 198 204 198 160 199 141 186 133 111 232 184 235 200 223 246 241 254 260 248 302 269 256 244 248 262 269
194 202 214 214 211 192 200 163 167 162 143 156 155 129 177 175 183 188 196 224 190 184 177 171 109 139 129 202 182 188 231 242 229 228 222 263 259 199 212 231 254 274 273 284 287
181 205 211 200 192 204 194 142 138 162 147 153 113 114 160 168 176 181 202 218 184 154 195 177 126 177 195 123 237 241 224 215 240 231 239 268 262 322 255 251 273 281 296 300 311
148 167 179 178 193 208 162 150 172 157 171 158 131 129 156 159 152 168 181 206 175 175 176 177 204 84 343 262 207 216 222 232 239 272 260 263 264 293 265 268 276 269 288 299 310
153 155 207 179 198 175 152 146 151 169 106 94 102 119 112 161 18 174 166 172 180 184 177 165 168 188 209 142 143 191 211 224 231 249 250 246 262 250 272 276 288 290 292 299 304
166 193 178 146 192 161 162 141 147 147 66 143 50 158 140 140 104 167 144 109 91 178 169 170 217 203 252 210 252 220 242 239 230 243 246 259 257 264 252 268 281 282 283 285 287
146 163 88 129 154 131 154 160 157 149 150 183 165 170 153 157 176 168 139 138 163 133 172 189 178 152 230 211 249 260 246 227 237 252 258 262 273 262 281 281 284 280 290 289 286
82 104 121 155 149 156 151 160 164 149 22 169 147 140 103 150 136 145 139 131 161 170 189 175 158 120 266 229 311 272 241 228 235 237 232 252 254 270 262 257 261 272 271 271 277